,,PressureMeas_1m,,PRMeasQMR101_1,,RHStat155_1m_1,,SRMeasQMS101R_1m,,TAStat155_1m_1,,GenWind_1,,GenWind_1,
2018-10-22, 07:00:06,VALID,918.933,VALID,0.0,VALID,93.476,VALID,42.555,VALID,20.438,INVALID,360.0,VALID,0.0,
2018-10-22, 07:01:06,VALID,918.939,VALID,0.0,VALID,92.921,VALID,41.754,VALID,20.483,INVALID,360.0,VALID,0.0,
2018-10-22, 07:02:06,VALID,918.97,VALID,0.0,VALID,92.868,VALID,40.304,VALID,20.528,INVALID,360.0,VALID,0.0,
2018-10-22, 07:03:06,VALID,918.993,VALID,0.0,VALID,93.135,VALID,38.711,VALID,20.564,VALID,113.0,VALID,0.0,
2018-10-22, 07:04:06,VALID,919.013,VALID,0.0,VALID,93.353,VALID,37.633,VALID,20.589,VALID,111.0,VALID,0.0,
2018-10-22, 07:05:06,VALID,919.023,VALID,0.0,VALID,93.244,VALID,36.197,VALID,20.581,VALID,113.0,VALID,0.0,
2018-10-22, 07:06:06,VALID,919.022,VALID,0.0,VALID,92.931,VALID,33.951,VALID,20.573,VALID,116.0,VALID,0.0,
2018-10-22, 07:07:06,VALID,919.04,VALID,0.0,VALID,93.123,VALID,32.45,VALID,20.596,VALID,126.0,VALID,0.0,
2018-10-22, 07:08:06,VALID,919.07,VALID,0.0,VALID,92.961,VALID,32.082,VALID,20.623,VALID,118.0,VALID,0.0,
2018-10-22, 07:09:06,VALID,919.091,VALID,0.0,VALID,93.375,VALID,31.997,VALID,20.648,VALID,93.0,VALID,0.0,
2018-10-22, 07:10:06,VALID,919.081,VALID,0.0,VALID,93.576,VALID,31.931,VALID,20.647,VALID,90.0,VALID,0.0,
2018-10-22, 07:11:06,VALID,919.099,VALID,0.0,VALID,93.791,VALID,31.932,VALID,20.642,VALID,82.0,VALID,0.0,
2018-10-22, 07:12:06,VALID,919.118,VALID,0.0,VALID,93.468,VALID,32.406,VALID,20.61,VALID,92.0,VALID,0.0,
2018-10-22, 07:13:06,VALID,919.15,VALID,0.0,VALID,93.462,VALID,33.885,VALID,20.61,VALID,92.0,VALID,0.0,
2018-10-22, 07:14:06,VALID,919.17,VALID,0.0,VALID,94.05,VALID,36.03,VALID,20.636,VALID,53.0,VALID,0.0,
2018-10-22, 07:15:06,VALID,919.17,VALID,0.0,VALID,94.284,VALID,38.445,VALID,20.636,VALID,356.0,VALID,0.0,
2018-10-22, 07:16:06,VALID,919.18,VALID,0.0,VALID,93.984,VALID,41.267,VALID,20.587,VALID,349.0,VALID,0.0,
2018-10-22, 07:17:06,VALID,919.198,VALID,0.0,VALID,93.98,VALID,44.238,VALID,20.563,VALID,349.0,VALID,0.0,
2018-10-22, 07:18:06,VALID,919.208,VALID,0.0,VALID,94.407,VALID,46.806,VALID,20.593,VALID,349.0,VALID,0.0,
2018-10-22, 07:19:06,VALID,919.228,VALID,0.0,VALID,94.323,VALID,49.122,VALID,20.599,VALID,349.0,VALID,0.0,
2018-10-22, 07:20:06,VALID,919.239,VALID,0.0,VALID,94.062,VALID,51.325,VALID,20.599,VALID,348.0,VALID,0.0,
2018-10-22, 07:21:06,VALID,919.254,VALID,0.0,VALID,94.131,VALID,54.191,VALID,20.589,VALID,266.0,VALID,0.0,
2018-10-22, 07:22:06,VALID,919.261,VALID,0.0,VALID,94.006,VALID,57.444,VALID,20.522,VALID,170.0,VALID,0.0,
2018-10-22, 07:23:06,VALID,919.266,VALID,0.0,VALID,94.027,VALID,60.235,VALID,20.448,VALID,170.0,VALID,0.0,
2018-10-22, 07:24:06,VALID,919.289,VALID,0.0,VALID,94.056,VALID,62.738,VALID,20.365,VALID,170.0,VALID,0.0,
2018-10-22, 07:25:06,VALID,919.308,VALID,0.0,VALID,94.621,VALID,64.943,VALID,20.348,INVALID,360.0,VALID,0.0,
2018-10-22, 07:26:06,VALID,919.328,VALID,0.0,VALID,95.128,VALID,66.761,VALID,20.331,INVALID,360.0,VALID,0.0,
2018-10-22, 07:27:06,VALID,919.355,VALID,0.0,VALID,94.855,VALID,69.148,VALID,20.258,INVALID,360.0,VALID,0.0,
2018-10-22, 07:28:06,VALID,919.378,VALID,0.0,VALID,94.826,VALID,71.641,VALID,20.202,INVALID,360.0,VALID,0.0,
2018-10-22, 07:29:06,VALID,919.395,VALID,0.0,VALID,95.212,VALID,73.0,VALID,20.199,INVALID,360.0,VALID,0.0,
2018-10-22, 07:30:06,VALID,919.413,VALID,0.0,VALID,95.233,VALID,73.408,VALID,20.178,INVALID,360.0,VALID,0.0,
2018-10-22, 07:31:06,VALID,919.424,VALID,0.0,VALID,95.299,VALID,73.925,VALID,20.17,INVALID,360.0,VALID,0.0,
2018-10-22, 07:32:06,VALID,919.435,VALID,0.0,VALID,95.483,VALID,74.539,VALID,20.194,INVALID,360.0,VALID,0.0,
2018-10-22, 07:33:06,VALID,919.422,VALID,0.0,VALID,95.633,VALID,74.871,VALID,20.245,INVALID,360.0,VALID,0.0,
2018-10-22, 07:34:06,VALID,919.443,VALID,0.0,VALID,95.488,VALID,76.159,VALID,20.289,INVALID,360.0,VALID,0.0,
2018-10-22, 07:35:06,VALID,919.447,VALID,0.0,VALID,95.371,VALID,78.054,VALID,20.344,INVALID,360.0,VALID,0.0,
2018-10-22, 07:36:06,VALID,919.468,VALID,0.0,VALID,95.225,VALID,78.634,VALID,20.395,INVALID,360.0,VALID,0.0,
2018-10-22, 07:37:06,VALID,919.474,VALID,0.0,VALID,95.104,VALID,78.734,VALID,20.454,VALID,316.0,VALID,0.0,
2018-10-22, 07:38:06,VALID,919.485,VALID,0.0,VALID,95.223,VALID,78.509,VALID,20.517,VALID,328.0,VALID,0.0,
2018-10-22, 07:39:06,VALID,919.5,VALID,0.0,VALID,94.843,VALID,78.373,VALID,20.539,VALID,310.0,VALID,0.0,
2018-10-22, 07:40:06,VALID,919.511,VALID,0.0,VALID,94.095,VALID,78.826,VALID,20.549,INVALID,360.0,VALID,0.0,
2018-10-22, 07:41:06,VALID,919.522,VALID,0.0,VALID,94.01,VALID,81.118,VALID,20.565,INVALID,360.0,VALID,0.0,
2018-10-22, 07:42:06,VALID,919.531,VALID,0.0,VALID,93.434,VALID,85.208,VALID,20.575,INVALID,360.0,VALID,0.0,
2018-10-22, 07:43:06,VALID,919.538,VALID,0.0,VALID,93.288,VALID,90.694,VALID,20.601,INVALID,360.0,VALID,0.0,
2018-10-22, 07:44:06,VALID,919.535,VALID,0.0,VALID,92.829,VALID,96.945,VALID,20.609,INVALID,360.0,VALID,0.0,
2018-10-22, 07:45:06,VALID,919.536,VALID,0.0,VALID,92.186,VALID,103.619,VALID,20.627,INVALID,360.0,VALID,0.0,
2018-10-22, 07:46:06,VALID,919.538,VALID,0.0,VALID,92.35,VALID,111.255,VALID,20.686,INVALID,360.0,VALID,0.0,
2018-10-22, 07:47:06,VALID,919.542,VALID,0.0,VALID,91.674,VALID,118.221,VALID,20.712,INVALID,360.0,VALID,0.0,
2018-10-22, 07:48:06,VALID,919.56,VALID,0.0,VALID,91.854,VALID,124.953,VALID,20.768,INVALID,360.0,VALID,0.0,
2018-10-22, 07:49:06,VALID,919.603,VALID,0.0,VALID,91.594,VALID,128.821,VALID,20.809,INVALID,360.0,VALID,0.0,
2018-10-22, 07:50:06,VALID,919.628,VALID,0.0,VALID,91.499,VALID,121.556,VALID,20.872,INVALID,360.0,VALID,0.0,
2018-10-22, 07:51:06,VALID,919.652,VALID,0.0,VALID,91.107,VALID,121.27,VALID,20.954,INVALID,360.0,VALID,0.0,
2018-10-22, 07:52:06,VALID,919.67,VALID,0.0,VALID,90.38,VALID,125.509,VALID,21.029,INVALID,360.0,VALID,0.0,
2018-10-22, 07:53:06,VALID,919.7,VALID,0.0,VALID,90.308,VALID,132.781,VALID,21.093,INVALID,360.0,VALID,0.0,
2018-10-22, 07:54:06,VALID,919.703,VALID,0.0,VALID,89.789,VALID,143.261,VALID,21.147,INVALID,360.0,VALID,0.0,
2018-10-22, 07:55:06,VALID,919.711,VALID,0.0,VALID,89.45,VALID,150.959,VALID,21.204,INVALID,360.0,VALID,0.0,
2018-10-22, 07:56:06,VALID,919.705,VALID,0.0,VALID,88.733,VALID,154.288,VALID,21.242,INVALID,360.0,VALID,0.0,
2018-10-22, 07:57:06,VALID,919.707,VALID,0.0,VALID,88.63,VALID,168.887,VALID,21.278,INVALID,360.0,VALID,0.0,
2018-10-22, 07:58:06,VALID,919.689,VALID,0.0,VALID,88.623,VALID,154.777,VALID,21.336,INVALID,360.0,VALID,0.0,
2018-10-22, 07:59:06,VALID,919.69,VALID,0.0,VALID,88.744,VALID,156.228,VALID,21.381,INVALID,360.0,VALID,0.0,
2018-10-22, 08:00:06,VALID,919.711,VALID,0.0,VALID,88.743,VALID,158.596,VALID,21.401,INVALID,360.0,VALID,0.0,
2018-10-22, 08:01:06,VALID,919.747,VALID,0.0,VALID,88.474,VALID,156.791,VALID,21.419,INVALID,360.0,VALID,0.0,
2018-10-22, 08:02:06,VALID,919.776,VALID,0.0,VALID,87.983,VALID,153.452,VALID,21.454,INVALID,360.0,VALID,0.0,
2018-10-22, 08:03:06,VALID,919.807,VALID,0.0,VALID,87.815,VALID,152.439,VALID,21.512,INVALID,360.0,VALID,0.0,
2018-10-22, 08:04:06,VALID,919.848,VALID,0.0,VALID,87.423,VALID,150.136,VALID,21.58,INVALID,360.0,VALID,0.0,
2018-10-22, 08:05:06,VALID,919.877,VALID,0.0,VALID,87.506,VALID,146.677,VALID,21.639,INVALID,360.0,VALID,0.0,
2018-10-22, 08:06:06,VALID,919.922,VALID,0.0,VALID,88.002,VALID,142.139,VALID,21.698,INVALID,360.0,VALID,0.0,
2018-10-22, 08:07:06,VALID,919.924,VALID,0.0,VALID,87.641,VALID,135.551,VALID,21.743,INVALID,360.0,VALID,0.0,
2018-10-22, 08:08:06,VALID,919.95,VALID,0.0,VALID,88.442,VALID,131.475,VALID,21.806,INVALID,360.0,VALID,0.0,
2018-10-22, 08:09:06,VALID,919.972,VALID,0.0,VALID,88.846,VALID,130.461,VALID,21.839,INVALID,360.0,VALID,0.0,
2018-10-22, 08:10:06,VALID,919.999,VALID,0.0,VALID,89.693,VALID,130.822,VALID,21.836,INVALID,360.0,VALID,0.0,
2018-10-22, 08:11:06,VALID,920.003,VALID,0.0,VALID,89.728,VALID,131.561,VALID,21.815,INVALID,360.0,VALID,0.0,
2018-10-22, 08:12:06,VALID,920.01,VALID,0.0,VALID,90.118,VALID,133.971,VALID,21.742,INVALID,360.0,VALID,0.0,
2018-10-22, 08:13:06,VALID,920.006,VALID,0.0,VALID,90.08,VALID,138.485,VALID,21.706,INVALID,360.0,VALID,0.0,
2018-10-22, 08:14:06,VALID,919.994,VALID,0.0,VALID,89.941,VALID,145.145,VALID,21.694,INVALID,360.0,VALID,0.0,
2018-10-22, 08:15:06,VALID,919.982,VALID,0.0,VALID,89.77,VALID,152.181,VALID,21.648,INVALID,360.0,VALID,0.0,
2018-10-22, 08:16:06,VALID,919.978,VALID,0.0,VALID,89.829,VALID,160.293,VALID,21.64,INVALID,360.0,VALID,0.0,
2018-10-22, 08:17:06,VALID,919.969,VALID,0.0,VALID,89.664,VALID,169.531,VALID,21.647,INVALID,360.0,VALID,0.0,
2018-10-22, 08:18:06,VALID,919.979,VALID,0.0,VALID,90.1,VALID,177.05,VALID,21.689,INVALID,360.0,VALID,0.0,
2018-10-22, 08:19:06,VALID,919.97,VALID,0.0,VALID,89.905,VALID,181.905,VALID,21.746,INVALID,360.0,VALID,0.0,
2018-10-22, 08:20:06,VALID,919.971,VALID,0.0,VALID,89.653,VALID,186.193,VALID,21.759,INVALID,360.0,VALID,0.0,
2018-10-22, 08:21:06,VALID,919.958,VALID,0.0,VALID,89.97,VALID,190.395,VALID,21.834,INVALID,360.0,VALID,0.0,
2018-10-22, 08:22:06,VALID,919.966,VALID,0.0,VALID,89.289,VALID,193.381,VALID,21.909,INVALID,360.0,VALID,0.0,
2018-10-22, 08:23:06,VALID,919.961,VALID,0.0,VALID,89.094,VALID,195.8,VALID,21.952,INVALID,360.0,VALID,0.0,
2018-10-22, 08:24:06,VALID,919.988,VALID,0.0,VALID,89.09,VALID,198.942,VALID,22.009,INVALID,360.0,VALID,0.0,
2018-10-22, 08:25:06,VALID,919.993,VALID,0.0,VALID,87.947,VALID,204.124,VALID,22.031,INVALID,360.0,VALID,0.0,
2018-10-22, 08:26:06,VALID,920.007,VALID,0.0,VALID,87.822,VALID,211.734,VALID,21.995,INVALID,360.0,VALID,0.0,
2018-10-22, 08:27:06,VALID,920.024,VALID,0.0,VALID,88.376,VALID,219.586,VALID,22.001,INVALID,360.0,VALID,0.0,
2018-10-22, 08:28:06,VALID,920.037,VALID,0.0,VALID,88.76,VALID,227.343,VALID,22.065,INVALID,360.0,VALID,0.0,
2018-10-22, 08:29:06,VALID,920.056,VALID,0.0,VALID,89.013,VALID,229.818,VALID,22.075,INVALID,360.0,VALID,0.0,
2018-10-22, 08:30:06,VALID,920.06,VALID,0.0,VALID,88.793,VALID,231.505,VALID,22.078,INVALID,360.0,VALID,0.0,
2018-10-22, 08:31:06,VALID,920.073,VALID,0.0,VALID,88.83,VALID,235.425,VALID,22.066,INVALID,360.0,VALID,0.0,
2018-10-22, 08:32:06,VALID,920.091,VALID,0.0,VALID,88.543,VALID,242.975,VALID,22.107,INVALID,360.0,VALID,0.0,
2018-10-22, 08:33:06,VALID,920.092,VALID,0.0,VALID,87.996,VALID,257.302,VALID,22.172,INVALID,360.0,VALID,0.0,
2018-10-22, 08:34:06,VALID,920.101,VALID,0.0,VALID,87.815,VALID,270.285,VALID,22.283,INVALID,360.0,VALID,0.0,
2018-10-22, 08:35:06,VALID,920.115,VALID,0.0,VALID,87.765,VALID,271.451,VALID,22.443,VALID,120.0,VALID,0.0,
2018-10-22, 08:36:06,VALID,920.109,VALID,0.0,VALID,86.923,VALID,262.706,VALID,22.587,INVALID,360.0,VALID,0.0,
2018-10-22, 08:37:06,VALID,920.124,VALID,0.0,VALID,85.131,VALID,253.238,VALID,22.571,INVALID,360.0,VALID,0.0,
2018-10-22, 08:38:06,VALID,920.133,VALID,0.0,VALID,84.914,VALID,242.61,VALID,22.578,INVALID,360.0,VALID,0.0,
2018-10-22, 08:39:06,VALID,920.126,VALID,0.0,VALID,85.026,VALID,228.49,VALID,22.683,VALID,130.0,VALID,0.0,
2018-10-22, 08:40:06,VALID,920.126,VALID,0.0,VALID,85.061,VALID,215.912,VALID,22.802,VALID,136.0,VALID,0.0,
2018-10-22, 08:41:06,VALID,920.121,VALID,0.0,VALID,84.464,VALID,206.874,VALID,22.957,VALID,127.0,VALID,0.0,
2018-10-22, 08:42:06,VALID,920.115,VALID,0.0,VALID,82.638,VALID,197.663,VALID,23.025,VALID,115.0,VALID,0.0,
2018-10-22, 08:43:06,VALID,920.111,VALID,0.0,VALID,82.317,VALID,186.381,VALID,22.94,INVALID,360.0,VALID,0.0,
2018-10-22, 08:44:06,VALID,920.134,VALID,0.0,VALID,82.499,VALID,174.393,VALID,22.923,INVALID,360.0,VALID,0.0,
2018-10-22, 08:45:06,VALID,920.152,VALID,0.0,VALID,83.087,VALID,166.395,VALID,23.015,INVALID,360.0,VALID,0.0,
2018-10-22, 08:46:06,VALID,920.137,VALID,0.0,VALID,81.968,VALID,162.203,VALID,23.098,INVALID,360.0,VALID,0.0,
2018-10-22, 08:47:06,VALID,920.159,VALID,0.0,VALID,80.702,VALID,157.43,VALID,23.114,INVALID,360.0,VALID,0.0,
2018-10-22, 08:48:06,VALID,920.148,VALID,0.0,VALID,81.333,VALID,148.89,VALID,23.083,INVALID,360.0,VALID,0.0,
2018-10-22, 08:49:06,VALID,920.148,VALID,0.0,VALID,82.394,VALID,137.479,VALID,22.995,INVALID,360.0,VALID,0.0,
2018-10-22, 08:50:06,VALID,920.158,VALID,0.0,VALID,82.802,VALID,126.221,VALID,22.854,INVALID,360.0,VALID,0.0,
2018-10-22, 08:51:06,VALID,920.142,VALID,0.0,VALID,84.185,VALID,116.983,VALID,22.742,INVALID,360.0,VALID,0.0,
2018-10-22, 08:52:06,VALID,920.122,VALID,0.0,VALID,85.024,VALID,113.585,VALID,22.762,INVALID,360.0,VALID,0.0,
2018-10-22, 08:53:06,VALID,920.111,VALID,0.0,VALID,84.703,VALID,117.266,VALID,22.836,INVALID,360.0,VALID,0.0,
2018-10-22, 08:54:06,VALID,920.108,VALID,0.0,VALID,83.353,VALID,123.771,VALID,22.818,INVALID,360.0,VALID,0.0,
2018-10-22, 08:55:06,VALID,920.096,VALID,0.0,VALID,85.419,VALID,135.971,VALID,22.745,INVALID,360.0,VALID,0.0,
2018-10-22, 08:56:06,VALID,920.074,VALID,0.0,VALID,85.791,VALID,155.291,VALID,22.703,INVALID,360.0,VALID,0.0,
2018-10-22, 08:57:06,VALID,920.076,VALID,0.0,VALID,86.343,VALID,173.865,VALID,22.687,INVALID,360.0,VALID,0.0,
2018-10-22, 08:58:06,VALID,920.074,VALID,0.0,VALID,86.49,VALID,186.214,VALID,22.689,INVALID,360.0,VALID,0.0,
2018-10-22, 08:59:06,VALID,920.079,VALID,0.0,VALID,86.24,VALID,190.993,VALID,22.709,INVALID,360.0,VALID,0.0,
2018-10-22, 09:00:06,VALID,920.087,VALID,0.0,VALID,85.925,VALID,190.759,VALID,22.59,INVALID,360.0,VALID,0.0,
2018-10-22, 09:01:06,VALID,920.108,VALID,0.0,VALID,86.5,VALID,185.038,VALID,22.466,INVALID,360.0,VALID,0.0,
2018-10-22, 09:02:06,VALID,920.089,VALID,0.0,VALID,88.601,VALID,177.527,VALID,22.368,INVALID,360.0,VALID,0.0,
2018-10-22, 09:03:06,VALID,920.103,VALID,0.0,VALID,87.686,VALID,170.998,VALID,22.348,INVALID,360.0,VALID,0.0,
2018-10-22, 09:04:06,VALID,920.09,VALID,0.0,VALID,88.621,VALID,169.229,VALID,22.397,INVALID,360.0,VALID,0.0,
2018-10-22, 09:05:06,VALID,920.087,VALID,0.0,VALID,85.675,VALID,172.175,VALID,22.431,INVALID,360.0,VALID,0.0,
2018-10-22, 09:06:06,VALID,920.077,VALID,0.0,VALID,86.825,VALID,173.586,VALID,22.489,INVALID,360.0,VALID,0.0,
2018-10-22, 09:07:06,VALID,920.072,VALID,0.0,VALID,85.773,VALID,174.457,VALID,22.531,INVALID,360.0,VALID,0.0,
2018-10-22, 09:08:06,VALID,920.079,VALID,0.0,VALID,86.665,VALID,179.203,VALID,22.571,INVALID,360.0,VALID,0.0,
2018-10-22, 09:09:06,VALID,920.077,VALID,0.0,VALID,85.766,VALID,190.432,VALID,22.573,INVALID,360.0,VALID,0.0,
2018-10-22, 09:10:06,VALID,920.081,VALID,0.0,VALID,85.416,VALID,203.211,VALID,22.618,INVALID,360.0,VALID,0.0,
2018-10-22, 09:11:06,VALID,920.09,VALID,0.0,VALID,86.396,VALID,211.185,VALID,22.721,INVALID,360.0,VALID,0.0,
2018-10-22, 09:12:06,VALID,920.119,VALID,0.0,VALID,86.015,VALID,211.646,VALID,22.811,INVALID,360.0,VALID,0.0,
2018-10-22, 09:13:06,VALID,920.132,VALID,0.0,VALID,85.577,VALID,207.758,VALID,22.921,INVALID,360.0,VALID,0.0,
2018-10-22, 09:14:06,VALID,920.154,VALID,0.0,VALID,85.673,VALID,203.126,VALID,22.977,INVALID,360.0,VALID,0.0,
2018-10-22, 09:15:06,VALID,920.175,VALID,0.0,VALID,85.941,VALID,199.453,VALID,22.987,INVALID,360.0,VALID,0.0,
2018-10-22, 09:16:06,VALID,920.18,VALID,0.0,VALID,87.004,VALID,198.879,VALID,23.055,INVALID,360.0,VALID,0.0,
2018-10-22, 09:17:06,VALID,920.185,VALID,0.0,VALID,85.757,VALID,200.016,VALID,23.105,INVALID,360.0,VALID,0.0,
2018-10-22, 09:18:06,VALID,920.179,VALID,0.0,VALID,85.053,VALID,201.124,VALID,23.122,INVALID,360.0,VALID,0.0,
2018-10-22, 09:19:06,VALID,920.198,VALID,0.0,VALID,84.662,VALID,201.786,VALID,23.196,INVALID,360.0,VALID,0.0,
2018-10-22, 09:20:06,VALID,920.171,VALID,0.0,VALID,84.022,VALID,202.506,VALID,23.23,INVALID,360.0,VALID,0.0,
2018-10-22, 09:21:06,VALID,920.184,VALID,0.0,VALID,83.634,VALID,204.464,VALID,23.206,INVALID,360.0,VALID,0.0,
2018-10-22, 09:22:06,VALID,920.179,VALID,0.0,VALID,82.718,VALID,206.327,VALID,23.212,INVALID,360.0,VALID,0.0,
2018-10-22, 09:23:06,VALID,920.185,VALID,0.0,VALID,82.744,VALID,206.67,VALID,23.231,INVALID,360.0,VALID,0.0,
2018-10-22, 09:24:06,VALID,920.184,VALID,0.0,VALID,82.135,VALID,204.255,VALID,23.27,INVALID,360.0,VALID,0.0,
2018-10-22, 09:25:06,VALID,920.193,VALID,0.0,VALID,82.028,VALID,199.282,VALID,23.298,INVALID,360.0,VALID,0.0,
2018-10-22, 09:26:06,VALID,920.199,VALID,0.0,VALID,82.388,VALID,192.296,VALID,23.318,INVALID,360.0,VALID,0.0,
2018-10-22, 09:27:06,VALID,920.208,VALID,0.0,VALID,81.501,VALID,185.827,VALID,23.378,INVALID,360.0,VALID,0.0,
2018-10-22, 09:28:06,VALID,920.204,VALID,0.0,VALID,81.663,VALID,180.631,VALID,23.475,INVALID,360.0,VALID,0.0,
2018-10-22, 09:29:06,VALID,920.222,VALID,0.0,VALID,81.049,VALID,176.83,VALID,23.507,INVALID,360.0,VALID,0.0,
2018-10-22, 09:30:06,VALID,920.235,VALID,0.0,VALID,81.171,VALID,173.962,VALID,23.454,INVALID,360.0,VALID,0.0,
2018-10-22, 09:31:06,VALID,920.237,VALID,0.0,VALID,80.707,VALID,172.213,VALID,23.366,INVALID,360.0,VALID,0.0,
2018-10-22, 09:32:06,VALID,920.259,VALID,0.0,VALID,81.74,VALID,172.825,VALID,23.332,INVALID,360.0,VALID,0.0,
2018-10-22, 09:33:06,VALID,920.268,VALID,0.0,VALID,82.338,VALID,176.22,VALID,23.375,INVALID,360.0,VALID,0.0,
2018-10-22, 09:34:06,VALID,920.276,VALID,0.0,VALID,82.462,VALID,181.303,VALID,23.382,INVALID,360.0,VALID,0.0,
2018-10-22, 09:35:06,VALID,920.282,VALID,0.0,VALID,82.553,VALID,185.317,VALID,23.433,INVALID,360.0,VALID,0.0,
2018-10-22, 09:36:06,VALID,920.273,VALID,0.0,VALID,80.363,VALID,185.801,VALID,23.44,INVALID,360.0,VALID,0.0,
2018-10-22, 09:37:06,VALID,920.301,VALID,0.0,VALID,80.382,VALID,184.742,VALID,23.427,INVALID,360.0,VALID,0.0,
2018-10-22, 09:38:06,VALID,920.32,VALID,0.0,VALID,80.793,VALID,184.178,VALID,23.481,INVALID,360.0,VALID,0.0,
2018-10-22, 09:39:06,VALID,920.331,VALID,0.0,VALID,80.544,VALID,183.869,VALID,23.516,INVALID,360.0,VALID,0.0,
2018-10-22, 09:40:06,VALID,920.356,VALID,0.0,VALID,80.928,VALID,185.555,VALID,23.598,INVALID,360.0,VALID,0.0,
2018-10-22, 09:41:06,VALID,920.358,VALID,0.0,VALID,80.522,VALID,188.728,VALID,23.629,INVALID,360.0,VALID,0.0,
2018-10-22, 09:42:06,VALID,920.342,VALID,0.0,VALID,79.885,VALID,192.533,VALID,23.542,INVALID,360.0,VALID,0.0,
2018-10-22, 09:43:06,VALID,920.345,VALID,0.0,VALID,81.218,VALID,199.198,VALID,23.517,INVALID,360.0,VALID,0.0,
2018-10-22, 09:44:06,VALID,920.342,VALID,0.0,VALID,82.916,VALID,210.523,VALID,23.476,INVALID,360.0,VALID,0.0,
2018-10-22, 09:45:06,VALID,920.329,VALID,0.0,VALID,82.611,VALID,218.884,VALID,23.443,INVALID,360.0,VALID,0.0,
2018-10-22, 09:46:06,VALID,920.308,VALID,0.0,VALID,81.733,VALID,222.045,VALID,23.35,INVALID,360.0,VALID,0.0,
2018-10-22, 09:47:06,VALID,920.274,VALID,0.0,VALID,82.44,VALID,225.109,VALID,23.34,INVALID,360.0,VALID,0.0,
2018-10-22, 09:48:06,VALID,920.269,VALID,0.0,VALID,82.761,VALID,216.237,VALID,23.376,INVALID,360.0,VALID,0.0,
2018-10-22, 09:49:06,VALID,920.25,VALID,0.0,VALID,83.661,VALID,207.347,VALID,23.381,INVALID,360.0,VALID,0.0,
2018-10-22, 09:50:06,VALID,920.253,VALID,0.0,VALID,83.316,VALID,202.163,VALID,23.253,INVALID,360.0,VALID,0.0,
2018-10-22, 09:51:06,VALID,920.254,VALID,0.0,VALID,84.783,VALID,192.162,VALID,23.172,INVALID,360.0,VALID,0.0,
2018-10-22, 09:52:06,VALID,920.277,VALID,0.0,VALID,84.785,VALID,181.065,VALID,23.122,INVALID,360.0,VALID,0.0,
2018-10-22, 09:53:06,VALID,920.282,VALID,0.0,VALID,86.446,VALID,172.666,VALID,23.12,INVALID,360.0,VALID,0.0,
2018-10-22, 09:54:06,VALID,920.254,VALID,0.0,VALID,88.776,VALID,167.32,VALID,23.176,INVALID,360.0,VALID,0.0,
2018-10-22, 09:55:06,VALID,920.253,VALID,0.0,VALID,89.089,VALID,162.873,VALID,23.136,INVALID,360.0,VALID,0.0,
2018-10-22, 09:56:06,VALID,920.242,VALID,0.0,VALID,87.895,VALID,159.254,VALID,23.01,INVALID,360.0,VALID,0.0,
2018-10-22, 09:57:06,VALID,920.242,VALID,0.0,VALID,87.37,VALID,156.528,VALID,22.947,INVALID,360.0,VALID,0.0,
2018-10-22, 09:58:06,VALID,920.235,VALID,0.0,VALID,87.267,VALID,151.357,VALID,22.97,INVALID,360.0,VALID,0.0,
2018-10-22, 09:59:06,VALID,920.23,VALID,0.0,VALID,88.281,VALID,142.051,VALID,22.99,INVALID,360.0,VALID,0.0,
2018-10-22, 10:00:06,VALID,920.223,VALID,0.0,VALID,89.485,VALID,133.449,VALID,22.961,INVALID,360.0,VALID,0.0,
2018-10-22, 10:01:06,VALID,920.217,VALID,0.0,VALID,89.371,VALID,129.557,VALID,22.893,INVALID,360.0,VALID,0.0,
2018-10-22, 10:02:06,VALID,920.229,VALID,0.0,VALID,88.261,VALID,128.373,VALID,22.763,INVALID,360.0,VALID,0.0,
2018-10-22, 10:03:06,VALID,920.224,VALID,0.0,VALID,89.106,VALID,129.898,VALID,22.696,INVALID,360.0,VALID,0.0,
2018-10-22, 10:04:06,VALID,920.197,VALID,0.0,VALID,90.546,VALID,135.18,VALID,22.706,INVALID,360.0,VALID,0.0,
2018-10-22, 10:05:06,VALID,920.225,VALID,0.0,VALID,89.551,VALID,144.077,VALID,22.685,INVALID,360.0,VALID,0.0,
2018-10-22, 10:06:06,VALID,920.225,VALID,0.0,VALID,88.966,VALID,160.453,VALID,22.702,INVALID,360.0,VALID,0.0,
2018-10-22, 10:07:06,VALID,920.214,VALID,0.0,VALID,86.556,VALID,189.442,VALID,22.716,INVALID,360.0,VALID,0.0,
2018-10-22, 10:08:06,VALID,920.221,VALID,0.0,VALID,85.703,VALID,233.222,VALID,22.731,INVALID,360.0,VALID,0.0,
2018-10-22, 10:09:06,VALID,920.231,VALID,0.0,VALID,86.447,VALID,287.231,VALID,22.794,INVALID,360.0,VALID,0.0,
2018-10-22, 10:10:06,VALID,920.236,VALID,0.0,VALID,87.502,VALID,322.661,VALID,22.873,INVALID,360.0,VALID,0.0,
2018-10-22, 10:11:06,VALID,920.258,VALID,0.0,VALID,87.641,VALID,318.387,VALID,22.933,INVALID,360.0,VALID,0.0,
2018-10-22, 10:12:06,VALID,920.251,VALID,0.0,VALID,88.001,VALID,329.224,VALID,23.036,INVALID,360.0,VALID,0.0,
2018-10-22, 10:13:06,VALID,920.247,VALID,0.0,VALID,88.489,VALID,344.823,VALID,23.045,INVALID,360.0,VALID,0.0,
2018-10-22, 10:14:06,VALID,920.23,VALID,0.0,VALID,88.5,VALID,355.102,VALID,22.902,INVALID,360.0,VALID,0.0,
2018-10-22, 10:15:06,VALID,920.246,VALID,0.0,VALID,88.467,VALID,364.165,VALID,22.776,INVALID,360.0,VALID,0.0,
2018-10-22, 10:16:06,VALID,920.236,VALID,0.0,VALID,89.008,VALID,370.765,VALID,22.711,INVALID,360.0,VALID,0.0,
2018-10-22, 10:17:06,VALID,920.224,VALID,0.0,VALID,89.241,VALID,386.931,VALID,22.765,INVALID,360.0,VALID,0.0,
2018-10-22, 10:18:06,VALID,920.233,VALID,0.0,VALID,87.967,VALID,1017.144,VALID,22.855,INVALID,360.0,VALID,0.0,
2018-10-22, 10:19:06,VALID,920.205,VALID,0.0,VALID,86.987,VALID,839.432,VALID,22.964,INVALID,360.0,VALID,0.0,
2018-10-22, 10:20:06,VALID,920.209,VALID,0.0,VALID,85.706,VALID,996.893,VALID,23.07,INVALID,360.0,VALID,0.0,
2018-10-22, 10:21:06,VALID,920.188,VALID,0.0,VALID,84.41,VALID,1075.373,VALID,23.186,INVALID,360.0,VALID,0.0,
2018-10-22, 10:22:06,VALID,920.193,VALID,0.0,VALID,84.017,VALID,898.765,VALID,23.35,INVALID,360.0,VALID,0.0,
2018-10-22, 10:23:06,VALID,920.186,VALID,0.0,VALID,83.812,VALID,633.453,VALID,23.479,INVALID,360.0,VALID,0.0,
2018-10-22, 10:24:07,VALID,920.173,VALID,0.0,VALID,83.56,VALID,442.119,VALID,23.749,INVALID,360.0,VALID,0.0,
2018-10-22, 10:25:07,VALID,920.175,VALID,0.0,VALID,83.665,VALID,378.47,VALID,24.008,VALID,169.0,VALID,0.0,
2018-10-22, 10:26:07,VALID,920.153,VALID,0.0,VALID,82.311,VALID,356.586,VALID,24.337,VALID,253.0,VALID,0.0,
2018-10-22, 10:27:07,VALID,920.135,VALID,0.0,VALID,81.974,VALID,357.346,VALID,24.46,VALID,153.0,VALID,0.0,
2018-10-22, 10:28:07,VALID,920.101,VALID,0.0,VALID,80.185,VALID,438.759,VALID,24.659,VALID,84.0,VALID,0.0,
2018-10-22, 10:29:07,VALID,920.1,VALID,0.0,VALID,79.617,VALID,791.411,VALID,24.738,VALID,59.0,VALID,0.0,
2018-10-22, 10:30:07,VALID,920.061,VALID,0.0,VALID,78.725,VALID,598.312,VALID,24.935,VALID,70.0,VALID,0.0,
2018-10-22, 10:31:07,VALID,920.045,VALID,0.0,VALID,76.484,VALID,720.974,VALID,25.182,VALID,16.0,VALID,0.0,
2018-10-22, 10:32:07,VALID,920.055,VALID,0.0,VALID,75.362,VALID,466.841,VALID,25.321,VALID,91.0,VALID,0.0,
2018-10-22, 10:33:07,VALID,920.046,VALID,0.0,VALID,75.704,VALID,543.337,VALID,25.272,VALID,133.0,VALID,0.0,
2018-10-22, 10:34:07,VALID,920.061,VALID,0.0,VALID,74.424,VALID,834.187,VALID,25.144,VALID,121.0,VALID,0.0,
2018-10-22, 10:35:07,VALID,920.033,VALID,0.0,VALID,75.222,VALID,896.203,VALID,24.939,VALID,160.0,VALID,0.0,
2018-10-22, 10:36:07,VALID,920.02,VALID,0.0,VALID,75.853,VALID,638.253,VALID,25.003,VALID,191.0,VALID,0.0,